Date String (YYYY-MM-DD hh:mm:ss) UTC,Instrument flags,absolute air pressure of the measurement (hPa),sample flow rate (lpm),inlet stack bypass flow (lpm),air temperature of the measurement (°C),ambient temperature measured by the external sensor (°C),aerosol sample conditioner tube jacket temperature (°C),OPC LED temperature (°C),internal box temperature (°C),relative humidity of the measurement (%),span deviation,mass concentration of particles derived from Lorenz-Mie calculation of OPC scattering (μg/m³),mass concentration of particles derived from Lorenz-Mie calculation of OPC scattering (μg/m³),mass concentration of particles derived from Lorenz-Mie calculation of OPC scattering (μg/m³)
DateTimeUTC,F1_M11,P_M11,Q1_M11,Q2_M11,T1_M11,T2_M11,T3_M11,T4_M11,T5_M11,U1_M11,ZSPAN_M11,X0_M11,X2_M11,X1_M11
2024-03-14 08:00:00,SystemResetWarning,0824.8,5.00,000.00,018.5,017.4,000.0,027.1,020.0,27.6,0000.0,0000.02,0000.02,0000.02
2024-03-14 08:01:00,SystemResetWarning,0824.8,5.00,000.00,018.5,017.2,000.0,027.1,020.0,27.7,0000.0,0000.03,0000.02,0000.02
2024-03-14 08:02:00,SystemResetWarning,0824.8,5.00,000.00,018.4,017.1,000.0,027.2,020.0,27.8,0000.0,0000.02,0000.02,0000.02
2024-03-14 08:03:00,SystemResetWarning,0824.8,5.00,000.00,018.4,017.0,000.0,027.2,020.0,27.9,0000.0,0000.03,0000.02,0000.02
2024-03-14 08:04:00,SystemResetWarning,0824.8,5.00,000.00,018.4,017.0,000.0,027.2,020.0,28.0,0000.0,0000.03,0000.02,0000.02
2024-03-14 08:05:00,SystemResetWarning,0824.8,5.01,000.00,018.3,017.0,000.0,027.2,020.0,28.0,0000.0,0000.02,0000.02,0000.02
2024-03-14 08:06:00,SystemResetWarning,0824.9,5.00,000.00,018.3,016.9,000.0,027.2,020.0,28.1,0000.0,0000.02,0000.02,0000.02
2024-03-14 08:07:00,SystemResetWarning,0824.9,5.00,000.00,018.3,016.9,000.0,027.2,020.0,28.6,0000.0,0000.02,0000.02,0000.02
2024-03-14 08:08:00,SystemResetWarning,0824.9,5.00,000.00,018.3,016.9,000.0,027.2,020.0,29.0,0000.0,0000.02,0000.02,0000.02
2024-03-14 08:09:00,SystemResetWarning,0824.9,5.00,000.00,018.3,017.4,000.0,027.2,020.2,28.4,0000.0,0000.02,0000.02,0000.02
2024-03-14 08:10:00,SystemResetWarning,0824.9,5.01,000.00,018.5,018.4,000.0,027.3,020.8,28.0,0000.0,0000.02,0000.02,0000.02
2024-03-14 08:11:00,SystemResetWarning,0824.9,4.98,000.00,018.7,018.8,000.0,027.2,020.9,27.6,0000.0,0000.01,0000.01,0000.01
2024-03-14 08:12:00,SystemResetWarning,0824.9,4.99,000.00,018.7,018.4,000.0,027.2,020.7,27.6,0000.0,0000.01,0000.01,0000.01
2024-03-14 08:13:00,SystemResetWarning,0824.9,5.01,000.00,018.7,018.1,000.0,027.2,020.4,27.6,0000.0,0000.01,0000.01,0000.01
2024-03-14 08:14:00,SystemResetWarning,0824.9,5.01,000.00,018.6,017.7,000.0,027.1,020.2,27.7,0000.0,0000.01,0000.01,0000.01
2024-03-14 08:15:00,SystemResetWarning,0824.9,5.00,000.00,018.5,017.5,000.0,027.1,020.0,27.9,0000.0,0000.01,0000.01,0000.01
2024-03-14 08:16:00,SystemResetWarning,0824.9,5.00,000.00,018.4,017.2,000.0,027.1,020.0,28.0,0000.0,0000.02,0000.01,0000.01
2024-03-14 08:17:00,SystemResetWarning,0824.9,5.00,000.00,018.4,017.1,000.0,027.1,020.0,28.0,0000.0,0000.02,0000.02,0000.01
2024-03-14 08:18:00,SystemResetWarning,0824.9,4.99,000.00,018.4,017.0,000.0,027.1,020.0,28.1,0000.0,0000.06,0000.02,0000.01
2024-03-14 08:19:00,SystemResetWarning,0825.0,4.99,000.00,018.3,017.0,000.0,027.1,020.0,28.1,0000.0,0000.07,0000.03,0000.01
2024-03-14 08:20:00,SystemResetWarning,0825.0,5.00,000.00,018.3,016.9,000.0,027.2,020.0,28.1,0000.0,0000.07,0000.03,0000.01
2024-03-14 08:21:00,SystemResetWarning,0825.1,5.01,000.00,018.3,016.8,000.0,027.2,020.0,28.2,0000.0,0000.07,0000.03,0000.01
2024-03-14 08:22:00,SystemResetWarning,0825.1,5.01,000.00,018.3,017.1,000.0,027.2,020.1,28.2,0000.0,0000.07,0000.03,0000.01
2024-03-14 08:23:00,SystemResetWarning,0825.2,4.99,000.00,018.5,018.1,000.0,027.2,020.6,27.9,0000.0,0000.07,0000.03,0000.01
2024-03-14 08:24:00,SystemResetWarning,0825.2,4.99,000.00,018.7,018.9,000.0,027.3,021.0,27.5,0000.0,0000.07,0000.03,0000.01
2024-03-14 08:25:00,SystemResetWarning,0825.2,4.99,000.00,018.8,018.6,000.0,027.2,020.8,27.4,0000.0,0000.07,0000.03,0000.01
2024-03-14 08:26:00,SystemResetWarning,0825.2,5.01,000.00,018.7,018.3,000.0,027.2,020.6,27.4,0000.0,0000.07,0000.03,0000.01
2024-03-14 08:27:00,SystemResetWarning,0825.2,5.00,000.00,018.7,018.0,000.0,027.2,020.3,27.5,0000.0,0000.06,0000.02,0000.01
2024-03-14 08:28:00,SystemResetWarning,0825.1,5.00,000.00,018.6,017.7,000.0,027.1,020.2,27.6,0000.0,0000.06,0000.02,0000.01
2024-03-14 08:29:00,SystemResetWarning,0825.2,5.00,000.00,018.5,017.4,000.0,027.1,020.0,27.7,0000.0,0000.03,0000.02,0000.01
2024-03-14 08:30:00,SystemResetWarning,0825.2,5.00,000.00,018.5,017.2,000.0,027.1,020.0,27.8,0000.0,0000.02,0000.01,0000.01
2024-03-14 08:31:00,SystemResetWarning,0825.3,5.01,000.00,018.4,017.1,000.0,027.1,020.0,27.9,0000.0,0000.06,0000.02,0000.01
2024-03-14 08:32:00,SystemResetWarning,0825.2,5.00,000.00,018.4,017.0,000.0,027.1,020.0,28.0,0000.0,0000.06,0000.02,0000.01
2024-03-14 08:33:00,SystemResetWarning,0825.3,5.00,000.00,018.3,016.9,000.0,027.2,020.0,28.0,0000.0,0000.06,0000.03,0000.01
2024-03-14 08:34:00,SystemResetWarning,0825.3,5.00,000.00,018.3,016.9,000.0,027.2,020.0,28.1,0000.0,0000.06,0000.03,0000.01
2024-03-14 08:35:00,SystemResetWarning,0825.3,5.00,000.00,018.3,016.8,000.0,027.2,020.0,28.1,0000.0,0000.06,0000.03,0000.01
2024-03-14 08:36:00,SystemResetWarning,0825.4,5.01,000.00,018.3,016.9,000.0,027.2,020.0,28.1,0000.0,0000.06,0000.03,0000.01
2024-03-14 08:37:00,SystemResetWarning,0825.4,5.01,000.00,018.4,017.6,000.0,027.2,020.4,28.0,0000.0,0000.06,0000.03,0000.01
2024-03-14 08:38:00,SystemResetWarning,0825.5,5.00,000.00,018.6,018.7,000.0,027.3,020.9,27.6,0000.0,0000.06,0000.03,0000.01
2024-03-14 08:39:00,SystemResetWarning,0825.5,4.98,000.00,018.8,018.8,000.0,027.2,020.9,27.3,0000.0,0000.06,0000.03,0000.01
2024-03-14 08:40:00,SystemResetWarning,0825.5,5.00,000.00,018.7,018.5,000.0,027.2,020.6,27.3,0000.0,0000.06,0000.03,0000.01
2024-03-14 08:41:00,SystemResetWarning,0825.4,5.00,000.00,018.7,018.1,000.0,027.2,020.4,27.4,0000.0,0000.06,0000.03,0000.01
2024-03-14 08:42:00,SystemResetWarning,0825.5,5.00,000.00,018.6,017.8,000.0,027.1,020.2,27.5,0000.0,0000.02,0000.01,0000.01
2024-03-14 08:43:00,SystemResetWarning,0825.5,5.00,000.00,018.5,017.5,000.0,027.1,020.1,27.6,0000.0,0000.02,0000.01,0000.01
2024-03-14 08:44:00,SystemResetWarning,0825.6,5.00,000.00,018.5,017.3,000.0,027.1,020.0,27.7,0000.0,0000.02,0000.01,0000.01
2024-03-14 08:45:00,SystemResetWarning,0825.6,5.00,000.00,018.4,017.2,000.0,027.1,020.0,27.8,0000.0,0000.02,0000.01,0000.01
2024-03-14 08:46:00,SystemResetWarning,0825.6,5.00,000.00,018.4,017.1,000.0,027.1,020.0,27.9,0000.0,0000.02,0000.01,0000.01
2024-03-14 08:47:00,SystemResetWarning,0825.6,5.00,000.00,018.3,017.0,000.0,027.1,020.0,28.8,0000.0,0000.02,0000.02,0000.01
2024-03-14 08:48:00,SystemResetWarning,0825.6,5.00,000.00,018.3,016.9,000.0,027.1,020.0,28.8,0000.0,0000.03,0000.02,0000.02
2024-03-14 08:49:00,SystemResetWarning,0825.6,5.01,000.00,018.3,016.9,000.0,027.1,020.0,28.4,0000.0,0000.03,0000.02,0000.02
2024-03-14 08:50:00,SystemResetWarning,0825.6,5.00,000.00,018.3,016.8,000.0,027.1,020.0,28.3,0000.0,0000.03,0000.02,0000.02
2024-03-14 08:51:00,SystemResetWarning,0825.6,5.00,000.00,018.3,016.8,000.0,027.1,020.0,28.3,0000.0,0000.03,0000.02,0000.02
2024-03-14 08:52:00,SystemResetWarning,0825.6,5.01,000.00,018.3,017.1,000.0,027.2,020.1,28.3,0000.0,0000.03,0000.02,0000.02
2024-03-14 08:53:00,SystemResetWarning,0825.6,5.01,000.00,018.5,018.3,000.0,027.2,020.7,27.9,0000.0,0000.03,0000.02,0000.02
2024-03-14 08:54:00,SystemResetWarning,0825.7,4.99,000.00,018.8,019.2,000.0,027.3,021.2,27.5,0000.0,0000.02,0000.02,0000.01
2024-03-14 08:55:00,SystemResetWarning,0825.7,4.99,000.00,018.9,019.3,000.0,027.3,021.2,27.1,0000.0,0000.02,0000.02,0000.01
2024-03-14 08:56:00,SystemResetWarning,0825.7,4.99,000.00,018.9,018.9,000.0,027.2,020.9,27.1,0000.0,0000.02,0000.02,0000.01
2024-03-14 08:57:00,SystemResetWarning,0825.6,5.01,000.00,018.9,018.5,000.0,027.2,020.7,27.2,0000.0,0000.02,0000.02,0000.01
2024-03-14 08:58:00,SystemResetWarning,0825.6,5.01,000.00,018.8,018.2,000.0,027.2,020.5,27.3,0000.0,0000.03,0000.02,0000.02
2024-03-14 08:59:00,SystemResetWarning,0825.7,5.00,000.00,018.7,017.9,000.0,027.2,020.3,27.4,0000.0,0000.02,0000.02,0000.02
